Miscellaneous Local Product
Issued by NWS North Platte, NE

Home | Current Version | Previous Version | Text Only | Print | Product List | Glossary On
Versions: 1 2 3 4 5 6 7 8 9 10 11 12 13 14 15 16 17 18 19 20 21 22 23 24 25 26 27 28 29 30 31 32 33 34 35 36 37 38 39 40 41 42 43 44 45 46 47 48 49 50
000
AXUS43 KLBF 271310
MISLBF


WESTERN AND NORTH CENTRAL NEBRASKA HOURLY WEATHER ROUNDUP
NATIONAL WEATHER SERVICE NORTH PLATTE NE
800 AM CDT WED AUG 27 2014

***STATIONS NOT REPORTING VARIABLES SUCH AS SKY/WEATHER OR
PRESSURE ARE PROVIDED BY THE NEBRASKA DEPARTMENT OF
ROADS...RAWS...AND APRS NETWORKS...AND ARE NOT UNDER
NATIONAL WEATHER SERVICE QUALITY CONTROL***

...OBSERVATIONS IN AND NEAR THE EASTERN PANHANDLE OF NEBRASKA...

CITY           SKY/WX    TMP DP  RH WIND       PRES   REMARKS
PINE RIDGE     MOCLDY    58  58 100 MISG      30.12F FOG
CHADRON        CLOUDY    62  58  86 N5        30.13R
ALLIANCE       CLOUDY    62  61  96 NE8       30.14R FOG
SIDNEY         CLEAR     60  57  89 CALM      30.14S
WHITECLAY        N/A     59  57  94 CALM        N/A
RUSHVILLE        N/A     61  58  91 SE7         N/A
GORDON           N/A     66  65  99 E9          N/A
CRESCENT LAKE    N/A     63  62  96 NE3         N/A
LISCO            N/A     68  63  85 NE7         N/A
BIG SPRINGS      N/A     63  61  92 CALM        N/A
$$

...OBSERVATIONS IN NORTH CENTRAL NEBRASKA...

CITY           SKY/WX    TMP DP  RH WIND       PRES   REMARKS
VALENTINE      CLOUDY    68  67  96 E3        30.12R
THEDFORD       CLOUDY    68  67  98 E9        30.13R
AINSWORTH      CLOUDY    65  64  99 CALM      30.12S
O`NEILL        CLOUDY    68  67  97 SE8       30.14R
ORD            CLOUDY    67  66  97 E6        30.10F FOG
BROKEN BOW     CLOUDY    69  68  96 CALM      30.12R FOG
BROWNLEE         N/A     69  67  93 E8          N/A
SPRINGVIEW       N/A     67  65  94 CALM        N/A
ROSE             N/A     70  70  99 E5          N/A
NEWPORT          N/A     66  66  99 E12         N/A
SARGENT          N/A     67  66  98 CALM        N/A
COMSTOCK         N/A     73  73  99 E5          N/A
CHAMBERS         N/A     64  63  97 E7          N/A
EWING            N/A     66  65  97 E3          N/A
$$

...OBSERVATIONS IN SOUTHWEST NEBRASKA AND FAR NORTHEAST COLORADO...

CITY           SKY/WX    TMP DP  RH WIND       PRES   REMARKS
WRAY             N/A     64  64 100 SE8       30.13S
HOLYOKE        FAIR      63  61  94 SE7       30.13R
IMPERIAL       PTCLDY    63  61  93 SE8       30.12R
OGALLALA       PTCLDY    61  60  97 CALM      30.12R
NORTH PLATTE   CLOUDY    66  63  90 E3        30.13R
MCCOOK         CLOUDY    67  66  97 SE9       30.13R
LEXINGTON      CLOUDY    68  67  96 N3        30.11R
PAXTON           N/A     65  63  93 CALM        N/A
SUTHERLAND       N/A     66  63  88 CALM        N/A
BRADY            N/A     65  63  93 CALM        N/A
GOTHENBURG       N/A     67  63  86 E3          N/A
CALLAWAY         N/A     66  65  98 E3          N/A
$$

...SOME WEATHER OBSERVATIONS FROM AROUND THE REGION...

CITY           SKY/WX    TMP DP  RH WIND       PRES   REMARKS
DENVER         CLOUDY    59  56  89 S5        30.16R
LARAMIE        CLOUDY    51  48  89 CALM      30.27R
CHEYENNE       LGT RAIN  58  53  84 W5        30.22R
SCOTTSBLUFF    CLOUDY    64  63  96 E8        30.13R
RAPID CITY     MOCLDY    55  53  93 E5        30.16R
PIERRE         CLOUDY    60  60 100 E8        30.11R FOG
WINNER         FOG       66  65  96 E8        30.11S VSB 1/2
SIOUX FALLS    PTSUNNY   60  56  86 E6        30.16S
OMAHA          CLOUDY    70  64  81 SE6       30.13R THUNDER
GRAND ISLAND   CLOUDY    69  66  90 NE3       30.08F
KANSAS CITY    CLOUDY    71  66  84 N17G24    30.14R
WICHITA        PTSUNNY   74  68  81 W3        30.12R
HAYS           CLOUDY    70  64  83 S3        30.12F
LIBERAL        MOCLDY    68  63  83 SE13      30.15S
GOODLAND       CLOUDY    64  63  96 S13       30.15R
$$



USA.gov is the U.S. government's official web portal to all federal, state and local government web resources and services.